Printer-friendly version

IAU Minor Planet Center

Minor Planet Center

MPEC 2007-W05 : 2007 VE191

The following Minor Planet Electronic Circular may be linked-to from your own Web pages, but must not otherwise be redistributed electronically.


Read MPEC 2007-W04 Read MPEC 2007-W06


M.P.E.C. 2007-W05                                Issued 2007 Nov. 16, 15:02 UT

     The Minor Planet Electronic Circulars contain information on unusual
         minor planets and routine data on comets.  They are published
   on behalf of Commission 20 of the International Astronomical Union by the
          Minor Planet Center, Smithsonian Astrophysical Observatory,
                          Cambridge, MA 02138, U.S.A.

             Prepared using the Tamkin Foundation Computer Network

                              MPC@CFA.HARVARD.EDU
          URL http://www.cfa.harvard.edu/iau/mpc.html  ISSN 1523-6714

                                  2007 VE191

Observations:
     K07VJ1E* C2007 11 15.26603 03 01 02.42 +28 18 46.0          19.9 V EW005G96
     K07VJ1E  C2007 11 15.27155 03 01 01.56 +28 18 44.3          20.2 V EW005G96
     K07VJ1E  C2007 11 15.27714 03 01 00.69 +28 18 42.4          19.8 V EW005G96
     K07VJ1E  C2007 11 15.28270 03 00 59.79 +28 18 40.5          19.8 V EW005G96
     K07VJ1E  C2007 11 15.33135 03 00 52.16 +28 18 22.6          19.9 V EW005G96
     K07VJ1E  C2007 11 15.33576 03 00 51.48 +28 18 20.7          20.0 V EW005G96
     K07VJ1E  C2007 11 15.34309 03 00 50.32 +28 18 17.7          19.9 V EW005G96
     K07VJ1E  C2007 11 15.34749 03 00 49.64 +28 18 15.9          19.9 V EW005G96
     K07VJ1E  C2007 11 16.02018 02 59 18.86 +28 13 38.7                 EW005J95
     K07VJ1E  C2007 11 16.02435 02 59 18.17 +28 13 36.7                 EW005J95
     K07VJ1E  C2007 11 16.02853 02 59 17.44 +28 13 35.3          20.0 R EW005J95
     K07VJ1E  C2007 11 16.14883 02 59 04.70 +28 12 59.6          19.8 V EW005G96
     K07VJ1E  C2007 11 16.14942 02 59 04.63 +28 12 59.9          19.9 V EW005G96
     K07VJ1E  C2007 11 16.15292 02 59 04.02 +28 12 58.7          19.6 V EW005G96
     K07VJ1E  C2007 11 16.15352 02 59 03.94 +28 12 58.8          19.7 V EW005G96
     K07VJ1E  C2007 11 16.15706 02 59 03.33 +28 12 57.8          20.1 V EW005G96
     K07VJ1E  C2007 11 16.15765 02 59 03.26 +28 12 57.6          19.9 V EW005G96
     K07VJ1E  C2007 11 16.16125 02 59 02.65 +28 12 56.8          20.0 V EW005G96
     K07VJ1E  C2007 11 16.16185 02 59 02.54 +28 12 56.5          19.9 V EW005G96

Observer details:
G96 Mt. Lemmon Survey.  Observer A. Boattini.  Measurers E. C. Beshore,
    A. Boattini, G. J. Garradd, A. R. Gibbs, A. D. Grauer, R. E. Hill,
    R. A. Kowalski, S. M. Larson, R. H. McNaught.  1.5-m reflector + CCD.
J95 Great Shefford.  Observer P. Birtwhistle.  0.40-m f/6.0 Schmidt-Cassegrain
    + CCD.

Orbital elements:
2007 VE191                                               Earth MOID = 0.0009 AU
Epoch 2007 Nov. 16.0 TT = JDT 2454420.5                 MPC
M 336.74883              (2000.0)            P               Q
n   0.40224282     Peri.  252.81508     -0.74500370     -0.66193766
a   1.8175116      Node   245.65249     +0.64126239     -0.67662471
e   0.6029543      Incl.    5.19614     +0.18371726     -0.32251749
P   2.45           H   23.6           G   0.15
From 19 observations 2007 Nov. 15-16.  E-assumed.

Ephemeris:
2007 VE191               a,e,i = 1.82, 0.60, 5                   q = 0.7216
Date    TT    R. A. (2000) Decl.     Delta      r     Elong.  Phase     V
2007 11 16    02 59.38   +28 14.3    0.119    1.106   168.9     9.9    19.8
2007 11 17    02 56.82   +28 06.6    0.110    1.097   168.4    10.4    19.7
2007 11 18    02 53.82   +27 56.9    0.101    1.087   167.7    11.2    19.5
2007 11 19    02 50.26   +27 44.4    0.0914   1.078   166.7    12.2    19.3
2007 11 20    02 45.98   +27 28.4    0.0822   1.068   165.4    13.5    19.1
2007 11 21    02 40.70   +27 07.3    0.0731   1.058   163.8    15.1    18.9
2007 11 22    02 34.05   +26 39.0    0.0641   1.049   161.8    17.1    18.6
2007 11 23    02 25.41   +25 59.4    0.0552   1.039   159.3    19.7    18.4
2007 11 24    02 13.71   +25 01.3    0.0464   1.030   155.9    23.0    18.1
2007 11 25    01 57.05   +23 30.5    0.0378   1.021   151.3    27.7    17.8
2007 11 26    01 31.72   +20 54.7    0.0295   1.011   144.3    34.7    17.4
2007 11 27    00 49.98   +15 54.0    0.0219   1.002   132.7    46.4    17.1
2007 11 28    23 36.34   +05 16.5    0.0159   0.992   111.2    67.9    17.0
2007 11 29    21 37.15   -12 58.2    0.0137   0.983    76.1   103.2    18.0
2007 11 30    19 32.99   -26 35.3    0.0170   0.974    43.7   135.6    21.0

Timothy B. Spahr             (C) Copyright 2007 MPC           M.P.E.C. 2007-W05

Read MPEC 2007-W04 Read MPEC 2007-W06


Our Web policy. Index to the CBAT/MPC/ICQ pages.


Valid HTML 4.01!